Station OWXO1 - Old Woman Creek, Old Woman Creek Reserve, OH Image indicating link to RSS feed of recent meteorological observations for station OWXO1


Conditions at OWXO1 as of
(6:45 pm EDT)
2245 GMT on 04/14/2024:
     

Click on the graph icon in the table below to see a time series plot of the last five days of that observation.

5-day plot - Wind Direction Wind Direction (WDIR):WSW ( 250 deg true )
5-day plot - Wind Speed Wind Speed (WSPD): 5.1 kts
5-day plot - Atmospheric Pressure Atmospheric Pressure (PRES):29.68 in
5-day plot - Air Temperature Air Temperature (ATMP): 77.5 °F
5-day plot - Dew Point Dew Point (DEWP): 55.0 °F
5-day plot - Heat Index Heat Index (HEAT): 78.8 °F
5-day plot - Wind Speed at 10 Meters Wind Speed at 10 meters (WSPD10M): 5.8 kts
5-day plot - Wind Speed at 20 Meters Wind Speed at 20 meters (WSPD20M): 5.8 kts
5-day plot -  Wind Speed, Wind Gust and Atmospheric Pressure Combined plot of Wind Speed, Gust, and Air Pressure
Previous observations
TIME
(EDT)
5-day plot - Wind Direction
WDIR
 
5-day plot - Wind Speed
WSPD
kts
5-day plot - Wind Gust
GST
kts
5-day plot - Wave Height
WVHT
ft
5-day plot - Dominant Wave Period
DPD
sec
5-day plot - Average Wave Period
APD
sec
5-day plot - Mean Wave Direction
MWD
 
5-day plot - Atmospheric Pressure
PRES
in
5-day plot - Pressure Tendency
PTDY
in
5-day plot - Air Temperature
ATMP
°F
5-day plot - Water Temperature
WTMP
°F
5-day plot - Dew Point
DEWP
°F
5-day plot - Salinity
SAL
psu
5-day plot - Visibility
VIS
nmi
5-day plot - Tide (above MLLW)
TIDE
ft
2024-04-14 06:30 pm W 6.0-----29.68- 78.3- 55.0---
2024-04-14 06:15 pmWSW 7.0-----29.68- 78.3- 54.5---
2024-04-14 06:00 pm W 8.0-----29.68+0.00 79.0- 54.5---
2024-04-14 05:45 pmWSW 7.0-----29.68- 78.8- 54.9---
2024-04-14 05:30 pmWSW 8.0-----29.68- 79.3- 54.7---
2024-04-14 05:15 pm W 7.0-----29.68- 79.9- 54.7---
2024-04-14 05:00 pmWSW 7.0-----29.68+0.00 79.9- 54.7---
2024-04-14 04:45 pmWSW 5.1-----29.68- 80.4- 55.0---
2024-04-14 04:30 pmWSW 7.0-----29.68- 80.1- 54.7---
2024-04-14 04:15 pmWSW 7.0-----29.68- 79.3- 54.7---
2024-04-14 04:00 pmWSW 8.0-----29.68+0.00 80.1- 54.7---
2024-04-14 03:45 pmWSW 7.0-----29.68- 80.2- 54.3---
2024-04-14 03:30 pmWSW 7.0-----29.68- 80.4- 53.8---
2024-04-14 03:15 pmWSW 7.0-----29.68- 80.2- 53.6---
2024-04-14 03:00 pmWSW 7.0-----29.68+0.00 80.2- 53.6---
2024-04-14 02:45 pmWSW 7.0-----29.68- 80.1- 53.4---
2024-04-14 02:30 pmWSW 7.0-----29.68- 79.7- 53.1---
2024-04-14 02:15 pmWSW 7.0-----29.68- 79.0- 52.5---
2024-04-14 02:00 pmWSW 7.0-----29.68-0.03 78.8- 52.9---
2024-04-14 01:45 pmWSW 7.0-----29.68- 78.3- 52.5---
2024-04-14 01:30 pmWSW 6.0-----29.68- 77.5- 52.5---
2024-04-14 01:15 pmWSW 8.0-----29.68- 76.6- 51.6---
2024-04-14 01:00 pmWSW 7.0-----29.68-0.03 76.5- 51.4---
2024-04-14 12:45 pmWSW 8.0-----29.68- 76.1- 51.3---
2024-04-14 12:30 pmWSW 8.0-----29.68- 75.4- 50.5---
2024-04-14 12:15 pmWSW 8.0-----29.68- 75.0- 50.2---
2024-04-14 12:00 pmWSW 8.0-----29.68-0.06 74.5- 50.4---
2024-04-14 11:45 amWSW 6.0-----29.68- 73.4- 50.5---
2024-04-14 11:30 amWSW 8.0-----29.71- 72.1- 48.7---
2024-04-14 11:15 amWSW 8.0-----29.71- 72.1- 48.7---
2024-04-14 11:00 amWSW 6.0-----29.71-0.03 70.9- 48.9---
2024-04-14 10:45 am SW 7.0-----29.71- 69.6- 48.4---
2024-04-14 10:30 am SW 7.0-----29.71- 68.4- 47.7---
2024-04-14 10:15 am SW 8.0-----29.71- 65.7- 46.2---
2024-04-14 10:00 am SW 7.0-----29.71-0.03 64.6- 45.9---
2024-04-14 09:45 am SW 7.0-----29.71- 63.5- 45.3---
2024-04-14 09:30 am SW 7.0-----29.71- 62.8- 44.6---
2024-04-14 09:15 am SW 7.0-----29.71- 62.6- 44.4---
2024-04-14 09:00 am SW 7.0-----29.74-0.03 62.4- 44.2---
2024-04-14 08:45 am SW 8.0-----29.74- 62.1- 43.5---
2024-04-14 08:30 am SW 7.0-----29.74- 61.3- 42.8---
2024-04-14 08:15 am SW 8.0-----29.74- 60.6- 42.1---
2024-04-14 08:00 am SW 7.0-----29.74-0.09 60.3- 41.7---
2024-04-14 07:45 am SW 8.0-----29.74- 60.1- 41.2---
2024-04-14 07:30 am SW 7.0-----29.74- 59.9- 41.0---
2024-04-14 07:15 am SW 7.0-----29.74- 59.7- 40.8---
2024-04-14 07:00 am SW 7.0-----29.74-0.12 59.7- 40.3---
2024-04-14 06:45 am SW 6.0-----29.74- 59.9- 39.9---
2024-04-14 06:30 am SW 5.1-----29.74- 59.4- 39.4---
2024-04-14 06:15 am SW 4.1-----29.77- 58.3- 39.4---
2024-04-14 06:00 am SW 4.1-----29.77-0.12 57.2- 38.5---
2024-04-14 05:45 am SW 4.1-----29.77- 56.5- 38.3---
2024-04-14 05:30 am SW 4.1-----29.80- 55.4- 37.8---
2024-04-14 05:15 amSSW 4.1-----29.80- 54.3- 37.8---
2024-04-14 05:00 am S 2.9-----29.83-0.09 52.7- 37.6---
2024-04-14 04:45 am S 2.9-----29.83- 52.2- 37.6---
2024-04-14 04:30 am S 2.9-----29.83- 51.4- 37.8---
2024-04-14 04:15 am S 2.9-----29.85- 51.4- 37.8---
2024-04-14 04:00 am S 1.9-----29.85-0.09 50.5- 38.1---
2024-04-14 03:45 am S 2.9-----29.85- 51.1- 38.3---
2024-04-14 03:30 am S 1.9-----29.85- 50.5- 38.5---
2024-04-14 03:15 am S 1.9-----29.88- 50.9- 38.8---
2024-04-14 03:00 amSSW 1.9-----29.88-0.06 50.2- 39.4---
2024-04-14 02:45 am SW 1.9-----29.88- 50.2- 39.7---
2024-04-14 02:30 am SW 1.9-----29.88- 49.8- 40.1---
2024-04-14 02:15 am SW 1.9-----29.91- 49.8- 40.5---
2024-04-14 02:00 am SW 2.9-----29.91-0.06 50.4- 40.3---
2024-04-14 01:45 am SW 2.9-----29.91- 50.0- 40.6---
2024-04-14 01:30 am SW 2.9-----29.94- 50.2- 40.5---
2024-04-14 01:15 am SW 2.9-----29.94- 49.1- 40.6---
2024-04-14 01:00 am SW 2.9-----29.94-0.03 49.5- 40.5---
2024-04-14 12:45 am SW 2.9-----29.94- 48.6- 40.5---
2024-04-14 12:30 am SW 1.9-----29.94- 48.6- 40.1---
2024-04-14 12:15 am SW 2.9-----29.94- 48.7- 39.9---
2024-04-14 12:00 am SW 1.9-----29.94-0.03 47.8- 39.7---
2024-04-13 11:45 pm SW 1.9-----29.94- 47.8- 39.7---
2024-04-13 11:30 pm SW 1.9-----29.94- 48.4- 39.6---
2024-04-13 11:15 pm SW 1.9-----29.97- 48.4- 39.2---
2024-04-13 11:00 pm SW 1.9-----29.97+0.00 48.2- 38.7---
2024-04-13 10:45 pmSSW 1.0-----29.97- 48.0- 38.5---
2024-04-13 10:30 pmSSW 1.0-----29.97- 48.7- 38.3---
2024-04-13 10:15 pm SW 1.9-----29.97- 49.5- 38.7---
2024-04-13 10:00 pm SW 1.9-----29.97+0.00 49.8- 39.4---
2024-04-13 09:45 pm SW 2.9-----29.97- 50.0- 39.2---
2024-04-13 09:30 pm SW 1.9-----29.97- 50.4- 39.2---
2024-04-13 09:15 pm SW 1.9-----29.97- 51.3- 39.2---
2024-04-13 09:00 pmWSW 2.9-----29.97+0.00 52.5- 39.2---
2024-04-13 08:45 pmWSW 2.9-----29.97- 54.3- 38.7---
2024-04-13 08:30 pmWSW 2.9-----29.97- 56.8- 36.5---
2024-04-13 08:15 pmWSW 2.9-----29.94- 58.1- 35.4---
2024-04-13 08:00 pmWSW 2.9-----29.97+0.00 59.0- 35.6---
2024-04-13 07:45 pmWSW 4.1-----29.97- 59.9- 35.2---
2024-04-13 07:30 pmWSW 4.1-----29.97- 60.6- 35.2---
2024-04-13 07:15 pmWSW 2.9-----29.97- 62.1- 35.1---
2024-04-13 07:00 pmWSW 5.1-----29.97-0.03 62.1- 34.3---